Wind_Speed
68 67 67 67 66 64 64 63 62 64 60 57 56 54 53 54 54 53 51 49 50 51 52 50 48 49 50 50 51 52 55 60 64 67 69 71 73 75
72 70 71 71 69 68 67 65 66 64 64 61 61 60 58 57 54 53 52 52 53 52 49 49 49 52 53 55 57 60 63 65 69 72 74 78 81 84
76 75 75 74 72 71 71 70 68 67 65 65 65 65 64 61 59 57 54 54 51 50 53 56 58 59 61 62 63 66 69 72 75 79 83 86 88 91
81 79 79 79 77 75 73 72 69 70 69 68 68 68 69 65 64 60 58 61 60 58 60 63 65 66 69 71 73 76 78 82 85 88 90 93 95 98
85 84 83 81 78 77 75 74 74 72 73 73 73 71 70 71 70 69 66 63 60 64 66 70 72 74 77 80 82 83 86 91 92 94 98 101 102 105
89 87 84 80 79 78 78 78 78 80 80 80 78 74 73 73 74 73 70 64 68 69 78 81 83 85 85 88 88 91 95 97 101 103 107 108 110 112
93 88 86 83 83 84 83 82 86 86 87 81 77 77 78 76 80 74 73 75 74 79 83 84 86 90 94 95 98 99 101 105 106 108 112 112 117 119
92 92 91 90 88 87 89 89 89 89 88 87 81 83 81 81 83 82 80 82 85 88 88 91 93 97 100 103 104 106 110 111 111 115 115 119 123 121
96 93 93 94 94 90 92 91 90 90 90 90 92 90 89 88 88 89 91 91 92 95 95 97 102 103 106 107 111 113 114 114 119 119 121 126 125 127
100 101 98 98 94 95 95 94 91 88 88 90 91 95 96 95 96 94 96 97 99 101 102 104 105 109 111 113 114 115 117 121 121 124 129 126 126 125
105 105 103 102 100 97 98 99 97 93 98 100 100 101 101 96 100 100 99 104 105 102 104 110 111 114 113 111 118 122 119 123 129 124 124 128 130 134
108 108 107 105 105 103 102 102 103 102 102 105 102 101 102 103 104 105 106 107 107 109 113 114 113 116 119 120 118 123 126 126 126 130 131 134 136 141
114 112 110 110 110 109 109 107 109 109 110 110 109 109 107 108 108 108 110 111 112 114 116 117 119 122 125 130 128 129 131 131 133 133 136 140 141 143
117 115 115 114 113 111 109 108 108 112 112 111 112 111 111 113 114 114 115 117 117 118 119 122 125 126 127 129 129 132 133 134 136 137 139 143 145 147
119 121 121 119 120 121 122 124 122 123 122 121 120 119 119 120 119 120 122 122 123 123 124 124 125 127 128 130 132 135 137 138 141 143 146 147 150 150
125 125 129 126 126 125 124 125 124 125 127 126 124 121 124 123 124 125 125 126 125 126 127 128 128 131 133 135 138 138 140 142 147 145 148 151 153 153
131 131 133 130 130 128 129 127 128 130 131 131 131 131 132 130 130 131 131 131 130 131 132 134 133 136 138 138 140 140 144 147 147 147 150 155 152 146
132 132 137 136 134 135 132 132 132 132 135 137 138 136 137 135 135 135 135 136 136 138 138 138 138 139 142 142 144 146 149 150 151 152 155 145 132 132
139 134 134 133 133 136 137 139 136 135 138 138 140 139 138 138 139 138 139 140 138 141 143 142 143 146 144 148 145 150 149 149 150 147 132 125 124 128
144 141 138 137 139 139 138 138 137 139 140 141 146 145 146 146 147 147 147 145 145 148 145 147 147 146 146 146 148 152 148 149 134 128 124 123 126 123
148 145 143 144 142 139 136 137 138 138 140 140 138 137 144 143 139 142 143 146 145 148 148 149 147 147 147 150 148 150 140 127 128 126 127 126 124 126
149 148 149 145 144 143 142 138 139 136 134 133 133 138 143 145 147 150 150 151 153 153 154 155 150 151 147 149 144 133 127 127 127 128 124 125 126 124
152 153 152 151 149 148 147 146 145 146 149 147 149 151 155 154 151 156 154 156 154 156 155 151 152 151 147 136 128 126 127 130 129 130 132 128 126 126
Wind_Direction
270 270 272 273 275 277 280 282 284 284 289 282 276 273 272 273 275 277 276 278 281 286 287 287 286 289 288 289 291 292 294 296 298 300 299 299 298 298
269 269 271 272 273 275 278 280 282 283 284 283 276 274 274 276 278 279 279 278 281 283 282 284 287 289 289 289 292 294 295 296 297 298 299 299 299 300
268 268 269 270 273 274 275 277 280 282 280 281 279 279 277 277 279 279 283 282 280 278 280 283 285 287 290 291 292 294 294 296 298 298 298 298 301 303
265 267 267 269 272 274 275 276 278 277 277 278 278 281 281 279 282 280 284 281 282 280 285 287 289 291 291 294 295 295 297 298 299 297 302 304 303 303
264 266 267 269 272 273 273 274 274 274 275 276 278 281 283 284 283 284 285 285 277 280 285 290 292 294 295 295 296 297 298 297 303 303 303 303 306 309
264 266 267 266 268 271 270 271 271 273 274 276 280 282 284 284 286 288 283 288 278 280 289 290 292 293 295 296 298 299 300 303 303 304 306 308 309 307
264 265 265 264 265 267 265 267 270 271 275 277 279 281 283 282 283 286 284 282 285 284 285 288 291 295 297 298 299 301 302 302 305 306 307 308 306 307
261 263 262 264 264 265 267 269 271 276 273 279 279 279 281 281 283 286 287 286 287 289 291 292 294 295 298 297 299 302 303 304 304 304 305 305 304 306
256 260 261 263 267 267 269 271 272 274 276 275 276 280 283 284 284 286 287 289 289 291 292 292 293 295 298 300 299 302 302 300 300 303 302 303 304 306
255 258 259 260 263 265 267 270 270 270 272 272 273 277 279 281 281 284 286 287 288 290 291 293 294 295 295 295 296 297 297 299 300 298 300 304 305 307
257 257 258 260 263 264 265 266 268 268 270 273 271 276 277 280 278 281 283 285 287 287 286 289 289 290 294 293 294 297 296 296 299 302 302 302 303 303
256 257 259 260 262 263 264 265 265 266 266 268 271 273 274 275 276 277 280 282 283 284 284 287 288 289 290 291 294 295 296 296 298 299 301 300 302 301
251 253 256 258 259 261 263 264 265 266 268 269 270 271 272 273 275 276 278 279 281 281 283 284 285 287 288 290 291 292 294 296 296 297 299 300 300 301
249 251 252 254 255 255 256 259 261 262 265 267 269 270 271 273 274 275 276 277 278 280 281 281 283 285 287 288 292 292 294 295 296 298 298 299 300 301
250 250 251 252 253 254 254 256 259 263 264 265 267 269 270 272 273 274 276 278 280 281 282 284 285 286 288 289 292 292 295 295 298 298 299 300 301 302
250 250 251 251 253 255 256 258 261 262 265 266 268 269 269 271 274 275 277 278 279 280 283 284 286 287 289 290 293 294 295 296 297 299 299 300 301 302
249 250 251 253 254 255 256 258 260 262 264 266 267 268 269 272 274 275 277 279 280 281 283 285 288 287 290 291 292 294 294 296 298 298 299 300 301 301
249 251 253 253 255 256 256 258 260 262 265 267 268 270 271 273 275 277 279 280 282 282 284 286 287 287 290 291 292 294 294 296 297 298 299 302 300 303
247 250 253 255 258 258 258 260 260 263 265 267 270 273 274 275 276 277 279 279 281 281 283 286 286 288 290 289 294 292 295 297 298 300 298 300 304 306
247 249 251 254 258 260 261 262 264 264 267 268 270 271 273 274 275 276 278 280 281 282 284 285 286 288 291 291 293 294 297 298 299 299 303 303 305 306
248 250 250 252 253 257 261 263 265 266 268 270 272 274 274 278 278 278 278 280 281 282 284 285 288 290 290 293 295 296 299 299 300 303 303 305 305 305
245 247 249 251 254 255 257 260 262 264 264 266 268 268 271 273 276 276 279 280 283 284 286 288 292 291 295 294 297 297 299 300 301 302 303 303 304 303
246 246 248 249 250 251 253 256 258 261 263 265 267 268 271 274 276 276 280 279 282 283 286 289 291 291 295 294 297 298 300 302 302 304 305 303 304 301
Height
10714 10715 10715 10714 10715 10716 10716 10716 10715 10713 10714 10713 10711 10709 10708 10707 10706 10706 10706 10705 10703 10702 10700 10697 10693 10690 10686 10682 10679 10676 10672 10667 10662 10656 10651 10647 10640 10633
10700 10701 10700 10700 10701 10702 10702 10703 10702 10702 10701 10701 10699 10697 10696 10695 10695 10695 10694 10693 10692 10690 10688 10685 10682 10678 10675 10671 10668 10664 10659 10654 10649 10643 10636 10630 10624 10617
10685 10687 10685 10685 10686 10687 10688 10689 10689 10688 10688 10687 10687 10686 10684 10684 10683 10683 10682 10681 10679 10676 10674 10672 10668 10664 10661 10658 10654 10650 10644 10639 10633 10626 10619 10613 10607 10598
10668 10671 10670 10670 10670 10671 10673 10672 10675 10673 10673 10672 10671 10672 10670 10670 10670 10670 10669 10666 10665 10663 10659 10656 10653 10650 10647 10643 10638 10633 10627 10621 10615 10608 10601 10594 10587 10580
10651 10653 10654 10656 10655 10654 10655 10655 10655 10657 10656 10657 10656 10657 10657 10656 10655 10655 10653 10651 10650 10647 10643 10640 10636 10633 10628 10624 10619 10614 10608 10602 10594 10587 10579 10571 10563 10554
10631 10635 10637 10639 10639 10638 10637 10636 10636 10637 10639 10639 10640 10641 10642 10640 10639 10638 10638 10636 10634 10630 10626 10623 10620 10615 10609 10605 10600 10593 10585 10578 10572 10563 10553 10545 10537 10528
10613 10617 10619 10620 10619 10620 10618 10619 10617 10616 10619 10624 10625 10625 10624 10623 10621 10622 10621 10619 10617 10613 10610 10607 10602 10594 10589 10582 10577 10570 10564 10557 10547 10538 10530 10521 10512 10503
10588 10595 10597 10599 10601 10601 10599 10601 10601 10599 10600 10603 10605 10606 10606 10604 10602 10600 10600 10598 10596 10591 10588 10583 10578 10572 10566 10561 10554 10545 10538 10531 10525 10517 10508 10500 10489 10479
10570 10574 10573 10579 10580 10586 10583 10581 10582 10581 10582 10581 10582 10583 10584 10583 10583 10579 10576 10575 10573 10568 10564 10561 10555 10550 10543 10533 10529 10523 10515 10508 10503 10494 10483 10474 10464 10453
10547 10551 10557 10558 10562 10562 10562 10562 10561 10561 10562 10562 10560 10560 10560 10560 10559 10557 10554 10551 10550 10545 10541 10536 10531 10526 10521 10515 10510 10502 10496 10487 10478 10470 10462 10448 10435 10423
10528 10529 10534 10540 10541 10544 10545 10544 10545 10545 10543 10542 10543 10540 10537 10536 10534 10532 10531 10529 10525 10521 10520 10516 10512 10506 10501 10494 10488 10481 10474 10466 10454 10444 10434 10424 10413 10401
10511 10511 10515 10518 10517 10521 10523 10525 10527 10529 10527 10525 10523 10520 10519 10518 10516 10514 10513 10510 10508 10504 10499 10495 10490 10485 10482 10473 10464 10457 10450 10442 10433 10422 10412 10400 10391 10376
10485 10489 10494 10495 10495 10499 10500 10503 10502 10503 10504 10505 10505 10503 10501 10498 10496 10495 10492 10490 10485 10481 10477 10474 10468 10464 10459 10450 10443 10436 10428 10419 10410 10398 10388 10375 10359 10347
10464 10468 10470 10472 10472 10476 10479 10479 10476 10473 10478 10479 10479 10479 10479 10478 10476 10474 10471 10466 10463 10458 10455 10451 10447 10440 10435 10426 10419 10407 10402 10392 10382 10371 10360 10343 10330 10319
10440 10441 10442 10446 10447 10451 10456 10452 10454 10450 10451 10455 10455 10455 10454 10452 10453 10450 10446 10444 10439 10435 10429 10427 10421 10415 10409 10400 10392 10381 10375 10364 10352 10341 10329 10313 10300 10289
10409 10412 10409 10415 10417 10422 10427 10428 10431 10429 10426 10426 10427 10426 10423 10426 10427 10424 10422 10418 10414 10409 10406 10401 10396 10390 10382 10373 10365 10356 10347 10335 10322 10315 10298 10282 10270 10252
10373 10377 10379 10386 10390 10397 10397 10403 10402 10400 10398 10394 10397 10398 10398 10401 10399 10396 10393 10390 10386 10383 10380 10374 10369 10360 10353 10346 10338 10330 10316 10303 10297 10283 10271 10251 10235 10219
10341 10342 10348 10358 10360 10363 10373 10373 10374 10375 10369 10365 10366 10370 10368 10371 10369 10366 10364 10361 10357 10354 10350 10347 10339 10332 10327 10319 10310 10299 10283 10275 10264 10251 10237 10226 10202 10185
10313 10322 10324 10330 10329 10332 10338 10338 10348 10348 10340 10342 10337 10338 10338 10336 10337 10336 10335 10330 10331 10323 10321 10317 10308 10304 10302 10289 10283 10264 10254 10246 10231 10218 10202 10192 10180 10163
10287 10295 10301 10303 10298 10299 10303 10309 10311 10313 10312 10314 10306 10308 10304 10306 10305 10305 10303 10303 10296 10292 10289 10284 10277 10278 10271 10262 10249 10230 10224 10211 10197 10184 10172 10161 10151 10137
10257 10262 10268 10269 10273 10273 10271 10274 10276 10282 10282 10282 10282 10274 10269 10272 10270 10267 10267 10268 10265 10260 10257 10252 10250 10249 10239 10230 10218 10200 10186 10178 10165 10154 10142 10132 10119 10106
10221 10228 10230 10237 10241 10246 10249 10248 10249 10253 10254 10253 10252 10246 10246 10242 10240 10239 10240 10236 10231 10223 10219 10218 10217 10211 10204 10195 10186 10173 10159 10142 10134 10128 10116 10105 10094 10082
10180 10190 10199 10206 10213 10219 10220 10225 10226 10223 10219 10225 10223 10221 10219 10215 10213 10207 10211 10201 10205 10196 10194 10189 10183 10177 10173 10163 10157 10144 10133 10119 10104 10093 10078 10067 10058 10044